Stations météo

Publicité
Saarbrücken-Ensheim, Allemagne (10708): Température de l'air & dewpoint: 18.09.2020 09:00:00 - 24.09.2020 09:00:00 (CEST)Saarbrücken-Ensheim, Allemagne (10708): Température de l'air 5cm & Température de l'air -5cm: 18.09.2020 09:00:00 - 24.09.2020 09:00:00 (CEST)Saarbrücken-Ensheim, Allemagne (10708): Température de l'air -20cm & Température de l'air -100cm: 18.09.2020 09:00:00 - 24.09.2020 09:00:00 (CEST)Saarbrücken-Ensheim, Allemagne (10708): Vitesse du vent & gusts: 18.09.2020 09:00:00 - 24.09.2020 09:00:00 (CEST)Saarbrücken-Ensheim, Allemagne (10708): Direction du vent: 18.09.2020 09:00:00 - 24.09.2020 09:00:00 (CEST)Saarbrücken-Ensheim, Allemagne (10708): reduced air pressure: 18.09.2020 09:00:00 - 24.09.2020 09:00:00 (CEST)Saarbrücken-Ensheim, Allemagne (10708): visibility: 18.09.2020 09:00:00 - 24.09.2020 09:00:00 (CEST)Saarbrücken-Ensheim, Allemagne (10708): Ensoleillement: 18.09.2020 09:00:00 - 24.09.2020 09:00:00 (CEST)Saarbrücken-Ensheim, Allemagne (10708): Quantités de précipitations: 18.09.2020 09:00:00 - 24.09.2020 09:00:00 (CEST)
Date & Time tt [°C] td [°C] tt 5cm [°C] tt -5cm [°C] tt -20cm [°C] tt -100cm [°C] ff [km/h] ff [knt] fx [km/h] fx [knt] dd ppp [hPa] vv [km] sd [min] rr [mm]
24.09.2020 09:00:00 11,8 8,7 11,7 14,4 17,7 17,8 13 7 26 14 WSW 1009,0 50 46 0,0
24.09.2020 08:00:00 11,6 8,8 9,9 14,6 18,0 17,8 22 12 29 16 WSW 1008,4 10 0 0,0
24.09.2020 07:00:00 13,1 11,3 12,0 15,7 18,1 17,8 16 9 44 24 WSW 1007,4 10 0 0,4
24.09.2020 06:00:00 15,1 13,4 14,3 16,0 18,3 17,8 25 13 41 22 WSW 1006,0 40 0 0,0
24.09.2020 05:00:00 15,3 13,9 14,6 16,1 18,4 17,8 24 13 39 21 SW 1005,0 10 0 0,7
24.09.2020 04:00:00 15,6 13,6 14,6 16,1 18,5 17,8 22 12 39 21 SW 1004,7 10 0 0,3
24.09.2020 03:00:00 17,4 12,4 16,3 16,1 18,7 17,8 23 12 38 21 SSW 1004,1 45 0 0,0
24.09.2020 02:00:00 17,4 11,7 15,9 16,2 18,9 17,8 24 13 36 20 S 1003,9 10 0 0,0
24.09.2020 01:00:00 17,3 12,0 16,2 16,2 19,2 17,8 15 8 25 14 S 1004,4 10 0 0,0
24.09.2020 00:00:00 16,8 12,1 14,1 16,6 19,5 17,9 12 6 25 13 S 1005,0 45 0 0,0
23.09.2020 23:00:00 16,8 12,3 14,1 16,9 19,8 17,8 13 7 22 12 S 1005,6 10 0 0,0
23.09.2020 22:00:00 16,2 12,9 13,4 17,4 20,1 17,8 13 7 20 11 S 1005,9 10 0 0,0
23.09.2020 21:00:00 16,4 13,0 14,0 18,3 20,4 17,8 11 6 16 9 S 1006,0 10 0 0,0
23.09.2020 20:00:00 16,0 13,4 13,6 19,4 20,7 17,8 6 3 10 6 SSE 1006,1 40 0 0,0
23.09.2020 19:00:00 16,5 15,1 15,7 20,4 20,8 17,8 4 2 9 5 - 1006,4 10 26 0,0
23.09.2020 18:00:00 17,0 14,7 17,8 21,0 21,0 17,8 5 3 50 27 SSE 1006,8 10 18 7,6
23.09.2020 17:00:00 18,5 13,8 19,9 23,2 20,8 17,8 4 2 29 16 - 1006,9 10 10 0,0
23.09.2020 16:00:00 17,7 12,4 19,4 23,7 20,5 17,8 29 15 40 22 WNW 1007,8 7 10 0,0
23.09.2020 15:00:00 20,9 11,7 23,7 23,3 20,2 17,8 13 7 28 15 SSW 1007,4 40 22 0,0
23.09.2020 14:00:00 19,7 11,7 21,6 22,9 19,8 17,8 16 9 29 16 WSW 1008,1 40 11 0,0
23.09.2020 13:00:00 20,1 11,5 23,4 22,6 19,4 17,8 21 11 34 18 WSW 1008,3 10 34 0,0
23.09.2020 12:00:00 19,5 12,6 24,0 20,7 19,1 17,8 18 10 31 17 SSW 1008,7 10 43 0,0
23.09.2020 11:00:00 16,9 13,2 19,7 18,0 19,1 17,8 15 8 23 13 WSW 1009,4 10 1 0,0
23.09.2020 10:00:00 15,2 12,1 16,4 17,2 19,2 17,8 16 9 24 13 WSW 1009,7 10 0 0,0
23.09.2020 09:00:00 14,6 11,1 14,8 16,5 19,4 17,8 8 4 15 8 SW 1009,4 10 12 0,0
23.09.2020 08:00:00 13,5 10,5 11,2 16,5 19,7 17,8 11 6 18 10 SW 1009,2 10 0 0,0
23.09.2020 07:00:00 13,9 9,0 10,6 17,0 20,0 17,8 13 7 16 9 SW 1008,7 40 0 0,0
23.09.2020 06:00:00 14,9 7,8 12,0 17,8 20,2 17,8 8 4 11 6 WSW 1008,6 10 0 0,0
23.09.2020 05:00:00 16,2 10,1 14,5 18,4 20,4 17,8 4 2 13 7 - 1008,2 10 0 0,0
23.09.2020 04:00:00 16,7 10,2 15,7 18,6 20,6 17,8 0 0 16 9 N 1008,2 50 0 0,0
23.09.2020 03:00:00 16,6 11,1 15,1 18,8 20,9 17,8 11 6 13 7 S 1008,4 50 0 0,0
23.09.2020 02:00:00 16,2 10,5 13,5 19,1 21,1 17,8 5 3 8 4 W 1008,5 50 0 0,0
23.09.2020 01:00:00 16,9 11,3 14,6 19,7 21,4 17,8 4 2 9 5 - 1008,5 10 0 0,0
23.09.2020 00:00:00 17,7 12,5 15,9 20,3 21,8 17,8 5 3 18 10 WSW 1008,3 10 0 0,0
22.09.2020 23:00:00 18,4 13,0 14,9 21,1 22,1 17,8 9 5 18 10 SW 1008,2 10 0 0,0
22.09.2020 22:00:00 20,0 13,4 18,3 21,6 22,4 17,8 9 5 16 8 S 1008,1 50 0 0,0
22.09.2020 21:00:00 19,9 12,4 16,3 22,6 22,7 17,8 4 2 8 4 - 1008,1 10 0 0,0
22.09.2020 20:00:00 20,5 10,7 16,3 24,0 22,9 17,8 5 3 9 5 SW 1007,9 10 5 0,0
22.09.2020 19:00:00 23,8 9,3 21,2 25,8 22,8 17,9 8 4 18 10 WSW 1007,5 10 59 0,0
22.09.2020 18:00:00 25,2 8,9 27,8 27,4 22,5 17,8 13 7 21 11 WSW 1007,5 50 55 0,0
22.09.2020 17:00:00 25,9 9,8 30,6 28,4 22,0 17,9 13 7 24 13 SW 1008,2 10 60 0,0
22.09.2020 16:00:00 25,6 9,7 30,8 28,4 21,4 17,8 15 8 30 16 SW 1009,1 50 60 0,0
22.09.2020 15:00:00 25,2 10,8 30,8 27,9 20,6 17,8 15 8 24 13 WSW 1009,7 10 60 0,0
22.09.2020 14:00:00 24,4 12,7 31,1 26,7 19,8 17,9 15 8 24 13 SSW 1010,2 10 60 0,0
22.09.2020 13:00:00 23,3 13,7 29,9 24,8 19,1 17,9 14 8 23 13 S 1011,0 50 60 0,0
22.09.2020 12:00:00 21,5 13,5 26,3 22,5 18,5 17,8 11 6 22 12 SSW 1011,5 50 60 0,0
22.09.2020 11:00:00 19,1 12,9 23,4 20,0 18,1 17,9 12 6 21 11 S 1012,4 50 60 0,0
22.09.2020 10:00:00 18,5 12,4 21,3 17,4 18,0 17,9 10 5 15 8 SSW 1012,6 45 60 0,0
22.09.2020 09:00:00 16,3 12,3 17,3 15,2 18,1 17,9 3 1 4 2 SSW 1013,0 45 60 0,0
22.09.2020 08:00:00 11,6 9,7 8,8 14,4 18,4 17,9 2 1 4 2 - 1013,6 10 3 0,0
22.09.2020 07:00:00 10,9 9,0 6,9 14,7 18,7 17,9 3 2 5 3 ENE 1013,5 40 0 0,0
22.09.2020 06:00:00 10,7 8,5 7,0 15,2 19,0 17,9 4 2 5 3 ENE 1013,5 40 0 0,0
22.09.2020 05:00:00 11,4 9,4 7,5 15,7 19,3 17,9 2 1 2 1 - 1013,5 10 0 0,0
22.09.2020 04:00:00 11,4 8,8 8,2 16,2 19,6 17,9 0 0 4 2 N 1013,8 40 0 0,0
22.09.2020 03:00:00 12,5 8,9 9,1 16,7 19,9 17,9 2 1 8 4 E 1013,8 40 0 0,0
22.09.2020 02:00:00 14,8 9,5 10,2 17,2 20,3 17,9 8 4 9 5 E 1013,7 10 0 0,0
22.09.2020 01:00:00 15,0 9,2 10,0 17,7 20,6 17,9 4 2 9 5 ENE 1014,1 10 0 0,0
22.09.2020 00:00:00 14,2 9,0 10,8 18,4 21,0 17,9 8 4 9 5 ENE 1014,4 45 0 0,0
21.09.2020 23:00:00 14,8 9,2 10,7 19,2 21,4 17,9 6 4 15 8 E 1014,4 45 0 0,0
21.09.2020 22:00:00 15,7 8,7 11,5 20,2 21,8 17,9 5 3 8 4 E 1014,4 50 0 0,0
21.09.2020 21:00:00 17,0 9,3 12,3 21,4 22,2 17,9 5 3 5 3 E 1014,0 10 0 0,0
21.09.2020 20:00:00 18,7 9,0 14,0 23,2 22,4 17,9 5 3 5 3 E 1013,6 50 25 0,0
21.09.2020 19:00:00 22,7 8,5 19,9 25,1 22,3 17,9 5 3 8 4 NE 1013,1 50 60 0,0
21.09.2020 18:00:00 24,7 7,9 27,0 26,7 22,0 17,9 5 3 13 7 W 1013,1 10 60 0,0
21.09.2020 17:00:00 25,1 8,3 29,2 27,6 21,5 18,0 8 4 14 8 ENE 1013,3 10 60 0,0
21.09.2020 16:00:00 24,3 8,2 29,7 27,9 20,8 17,9 5 3 22 12 - 1013,6 10 60 0,0
21.09.2020 15:00:00 23,9 9,1 30,9 27,2 20,0 18,0 6 4 16 9 S 1014,0 60 60 0,0
21.09.2020 14:00:00 22,7 7,7 28,6 26,0 19,1 18,0 8 4 16 9 SE 1014,6 10 60 0,0
21.09.2020 13:00:00 21,3 8,4 27,6 24,0 18,4 17,9 9 5 16 8 ENE 1015,1 10 60 0,0
21.09.2020 12:00:00 20,7 9,1 25,6 21,4 17,8 18,0 8 4 16 9 ENE 1015,4 10 60 0,0
21.09.2020 11:00:00 18,4 7,9 22,6 18,7 17,4 18,0 11 6 18 10 NE 1016,0 10 60 0,0
21.09.2020 10:00:00 16,2 6,9 18,6 16,2 17,3 18,0 13 7 21 11 ENE 1016,2 60 60 0,0
21.09.2020 09:00:00 14,4 7,2 15,5 14,2 17,5 18,0 8 5 13 7 NE 1016,4 50 60 0,0
21.09.2020 08:00:00 11,4 6,5 8,4 13,4 17,7 18,0 6 3 11 6 ENE 1016,4 50 18 0,0
21.09.2020 07:00:00 11,4 6,3 7,3 13,7 18,0 18,0 5 3 13 7 E 1015,9 10 0 0,0
21.09.2020 06:00:00 11,2 6,5 6,6 14,0 18,3 18,0 4 2 21 11 - 1016,0 10 0 0,0
21.09.2020 05:00:00 11,1 6,5 6,4 14,5 18,6 18,0 4 2 16 9 NE 1015,9 40 0 0,0
21.09.2020 04:00:00 11,7 6,8 7,1 14,9 18,9 18,0 6 3 21 11 NNE 1016,0 40 0 0,0
21.09.2020 03:00:00 12,9 7,0 8,0 15,5 19,2 18,0 9 5 18 10 NE 1016,0 10 0 0,0
21.09.2020 02:00:00 12,2 6,7 9,3 16,0 19,6 18,0 10 5 13 7 NE 1016,1 50 0 0,0
21.09.2020 01:00:00 14,9 7,3 11,2 16,6 19,9 18,0 8 4 13 7 ENE 1016,0 50 0 0,0
21.09.2020 00:00:00 14,8 7,1 9,5 17,2 20,3 18,0 4 2 16 9 SE 1016,0 50 0 0,0
20.09.2020 23:00:00 14,8 7,1 9,9 18,0 20,6 18,0 11 6 16 9 NE 1015,9 10 0 0,0
20.09.2020 22:00:00 16,2 6,5 12,0 18,8 21,0 18,0 9 5 14 8 NE 1015,7 10 0 0,0
20.09.2020 21:00:00 15,9 6,2 12,5 20,0 21,3 18,0 9 5 16 9 NE 1015,7 50 0 0,0
20.09.2020 20:00:00 18,1 6,0 15,7 21,5 21,5 18,0 11 6 15 8 NE 1014,9 60 21 0,0
20.09.2020 19:00:00 21,7 6,2 20,1 23,2 21,4 18,0 9 5 22 12 NE 1014,0 10 60 0,0
20.09.2020 18:00:00 23,8 5,6 25,4 24,4 21,1 18,0 10 5 21 11 NE 1013,5 50 60 0,0
20.09.2020 17:00:00 23,8 6,6 26,9 24,4 20,7 18,0 10 5 21 11 ENE 1013,5 50 60 0,0
20.09.2020 16:00:00 22,8 5,8 24,0 24,3 20,3 18,0 11 6 18 10 ENE 1013,9 10 55 0,0
20.09.2020 15:00:00 21,8 6,9 23,9 23,8 19,7 18,0 11 6 20 11 E 1014,5 10 57 0,0
20.09.2020 14:00:00 21,5 8,0 26,3 23,0 19,2 18,0 15 8 24 13 NNE 1014,8 10 42 0,0
20.09.2020 13:00:00 19,7 8,9 22,6 21,2 18,8 18,0 14 8 21 11 NE 1015,3 40 51 0,0
20.09.2020 12:00:00 17,3 7,5 19,3 19,2 18,6 18,0 15 8 26 14 NE 1015,9 10 50 0,0
20.09.2020 11:00:00 15,8 6,6 17,4 17,9 18,4 18,0 13 7 22 12 ENE 1016,4 40 50 0,0
20.09.2020 10:00:00 14,8 6,2 16,3 16,2 18,5 18,0 10 5 21 11 ENE 1016,2 40 26 0,0
20.09.2020 09:00:00 13,4 6,0 13,0 15,4 18,7 18,0 15 8 24 13 ENE 1016,0 10 26 0,0
20.09.2020 08:00:00 12,2 5,9 10,5 15,2 19,0 18,0 11 6 26 14 NE 1015,8 10 1 0,0
20.09.2020 07:00:00 12,5 6,0 10,4 15,5 19,3 18,0 16 9 29 15 NE 1015,5 10 0 0,0
20.09.2020 06:00:00 13,3 6,7 10,9 15,8 19,6 18,0 11 6 18 10 ENE 1015,5 10 0 0,0
20.09.2020 05:00:00 13,1 6,8 10,1 16,3 19,9 18,0 12 6 18 10 NE 1015,9 40 0 0,0
20.09.2020 04:00:00 12,4 6,8 9,0 16,8 20,2 18,0 9 5 15 8 NNE 1016,1 10 0 0,0
20.09.2020 03:00:00 13,0 6,7 10,5 17,3 20,6 18,0 8 4 15 8 NE 1016,2 40 0 0,0
20.09.2020 02:00:00 14,9 7,0 12,0 18,0 20,9 18,1 12 7 16 9 NE 1016,0 40 0 0,0
20.09.2020 01:00:00 14,8 7,2 12,6 18,6 21,3 18,0 13 7 18 10 NE 1015,9 10 0 0,0
20.09.2020 00:00:00 15,4 7,6 12,2 19,3 21,7 18,1 9 5 15 8 NE 1016,3 40 0 0,0
19.09.2020 23:00:00 16,2 9,0 12,5 20,3 22,0 18,1 9 5 13 7 NE 1016,3 40 0 0,0
19.09.2020 22:00:00 17,7 9,6 15,5 21,3 22,4 18,1 6 3 22 12 E 1016,1 40 0 0,0
19.09.2020 21:00:00 17,8 10,2 16,1 22,2 22,7 18,1 11 6 20 11 ENE 1015,8 40 0 0,0
19.09.2020 20:00:00 19,9 10,6 18,0 23,6 22,9 18,1 15 8 21 11 ENE 1015,0 10 0 0,0
19.09.2020 19:00:00 21,7 11,3 20,2 25,5 22,9 18,1 10 5 18 10 E 1015,1 45 14 0,0
19.09.2020 18:00:00 25,0 11,4 26,3 27,3 22,7 18,1 12 7 18 10 ENE 1014,6 40 60 0,0
19.09.2020 17:00:00 26,4 11,8 29,8 28,2 22,1 18,1 11 6 18 10 NNW 1014,7 10 60 0,0
19.09.2020 16:00:00 26,0 11,5 33,0 28,3 21,4 18,1 9 5 18 10 NNE 1015,6 10 55 0,0
19.09.2020 15:00:00 24,7 11,5 32,1 28,0 20,6 18,1 8 4 22 12 NNW 1016,6 10 60 0,0
19.09.2020 14:00:00 23,2 11,1 30,9 26,6 19,7 18,1 5 3 15 8 W 1017,4 40 60 0,0
19.09.2020 13:00:00 20,9 9,9 30,0 24,3 19,0 18,1 6 3 15 8 ESE 1018,0 40 60 0,0
19.09.2020 12:00:00 18,8 8,5 23,4 21,6 18,5 18,1 9 5 18 10 E 1018,7 10 60 0,0
19.09.2020 11:00:00 17,4 7,6 21,5 18,9 18,2 18,1 11 6 26 14 ENE 1019,1 10 60 0,0
19.09.2020 10:00:00 15,4 6,5 17,8 16,7 18,2 18,1 15 8 25 13 ENE 1019,1 10 60 0,0
19.09.2020 09:00:00 13,9 6,2 14,9 15,2 18,3 18,1 15 8 22 12 NE 1019,0 10 60 0,0
19.09.2020 08:00:00 11,7 6,1 11,0 14,7 18,6 18,1 12 7 18 10 NE 1019,3 40 14 0,0
19.09.2020 07:00:00 11,2 6,2 9,8 15,0 18,8 18,1 14 8 22 12 NE 1018,7 40 0 0,0
19.09.2020 06:00:00 11,8 6,9 10,3 15,5 19,1 18,1 11 6 26 14 NE 1018,5 10 0 0,0
19.09.2020 05:00:00 12,9 7,8 11,7 15,9 19,4 18,1 18 10 26 14 NE 1018,5 10 0 0,0
19.09.2020 04:00:00 13,5 8,4 12,2 16,3 19,7 18,1 18 10 25 14 NE 1019,1 10 0 0,0
19.09.2020 03:00:00 13,0 8,7 11,4 16,7 20,0 18,1 16 9 21 11 NE 1019,5 40 0 0,0
19.09.2020 02:00:00 13,7 8,7 12,2 17,3 20,3 18,1 16 9 22 12 NE 1019,7 40 0 0,0
19.09.2020 01:00:00 14,3 9,2 12,6 18,0 20,7 18,1 13 7 25 13 NE 1020,1 40 0 0,0
19.09.2020 00:00:00 16,2 9,5 14,6 18,7 21,0 18,2 17 9 29 15 ENE 1019,6 40 0 0,0
18.09.2020 23:00:00 17,4 9,7 15,9 19,4 21,3 18,2 16 9 27 15 ENE 1019,6 40 0 0,0
18.09.2020 22:00:00 18,2 10,0 16,7 20,2 21,6 18,2 18 10 29 16 ENE 1019,7 10 0 0,0
18.09.2020 21:00:00 19,1 10,4 17,6 21,1 21,9 18,2 19 10 29 16 ENE 1019,7 40 0 0,0
18.09.2020 20:00:00 19,8 10,5 18,4 22,4 22,1 18,2 18 10 29 16 ENE 1019,6 40 23 0,0
18.09.2020 19:00:00 22,0 10,9 21,4 23,8 22,0 18,2 18 10 34 18 E 1019,4 10 60 0,0
18.09.2020 18:00:00 23,3 11,0 24,4 25,1 21,8 18,2 24 13 37 20 E 1019,2 10 60 0,0
18.09.2020 17:00:00 23,5 10,9 25,7 25,8 21,4 18,2 22 12 36 20 E 1019,4 40 60 0,0
18.09.2020 16:00:00 23,6 11,2 26,7 26,2 20,8 18,2 24 13 37 20 E 1019,6 40 60 0,0
18.09.2020 15:00:00 22,9 11,1 26,8 25,8 20,1 18,2 22 12 38 21 E 1020,1 10 60 0,0
18.09.2020 14:00:00 22,3 11,1 26,7 24,6 19,3 18,2 25 14 36 20 ESE 1020,7 40 60 0,0
18.09.2020 13:00:00 21,9 11,6 25,8 22,7 18,7 18,2 24 13 36 20 E 1020,8 50 60 0,0
18.09.2020 12:00:00 19,3 10,4 22,8 20,3 18,2 18,2 22 12 34 18 ENE 1021,5 10 60 0,0
18.09.2020 11:00:00 15,8 8,5 18,8 18,1 18,0 18,2 21 11 33 18 ENE 1022,5 50 60 0,0
18.09.2020 10:00:00 14,1 7,7 16,5 15,9 17,9 18,2 17 9 29 16 NE 1022,6 50 60 0,0
18.09.2020 09:00:00 12,3 7,1 13,3 14,4 18,1 18,2 16 9 34 18 NE 1022,6 50 60 0,0

tt = Température de l'air
td = dewpoint
tt 5cm = Température de l'air 5cm
tt -5cm = Température de l'air -5cm
tt -20cm = Température de l'air -20cm
tt -100cm = Température de l'air -100cm
ff = Vitesse du vent
fx = gusts
dd = Direction du vent
ppp = reduced air pressure
vv = visibility
sd = Ensoleillement
rr = Quantités de précipitations

stations d'obs. à proximité